Location: Munkebjergskolens Observatorium
(55.3864°N, 10.3987°E)
Time: 05:20:20
(UTC+02:00)

QB50P2 - Pass Details

Date: 06 April 2023
Orbit: 581 x 596 km, 98.0° (Epoch: 31 May)

Event Time Altitude Azimuth Distance (km) Brightness Sun altitude
Rises 02:26:13 0° 22° (NNE) 2,836 ? -26.9°
Reaches altitude 10° 02:28:40 10° 35° (NE) 1,926 ? -26.8°
Enters shadow 02:32:05 27° 89° (E) 1,141 ? -26.6°
